Regional Weather Roundup
Issued by NWS

Home | Current Version | Previous Version | Text Only | Print | Product List | Glossary Off
Versions: 1 2 3 4 5 6 7 8 9 10 11 12 13 14 15 16 17 18 19 20 21 22 23 24 25 26 27 28 29 30 31 32 33 34 35 36 37 38 39 40 41 42 43 44 45 46 47 48 49 50

000
ASUS43 KOAX 200410
RWRNE

WEATHER ROUNDUP FOR NEBRASKA
NATIONAL WEATHER SERVICE OMAHA NE
1100 PM CDT THU OCT 19 2017

NOTES: SATELLITE DATA IS BEING USED TO AUGMENT CLOUD COVER ABOVE
       12000 FEET.
       "FAIR" INDICATES FEW OR NO CLOUDS BELOW 12,000 FEET WITH NO
       SIGNIFICANT WEATHER AND/OR OBSTRUCTIONS TO VISIBILITY.


NEZ001>004-019>022-054>056-200500-
NEBRASKA PANHANDLE

CITY           SKY/WX    TMP DP  RH WIND       PRES   REMARKS
SCOTTSBLUFF    PTCLDY    57  32  38 E8        29.82F
ALLIANCE       PTCLDY    53  41  63 S13       29.84R
CHADRON        PTCLDY    67  32  27 S16       29.75F
GORDON         FAIR      64  43  45 S12       29.80F
KIMBALL        PTCLDY    54  34  46 S8        29.90S
SIDNEY         PTCLDY    58  37  45 S13       29.89R
$$

NEZ057>060-069>072-079>082-200500-
SOUTHWEST NEBRASKA

CITY           SKY/WX    TMP DP  RH WIND       PRES   REMARKS
NORTH PLATTE   PTCLDY    65  43  44 SE8       29.89R
IMPERIAL       PTCLDY    63  42  46 S15       29.89S
LEXINGTON      MOCLDY    63  44  50 S13       29.92R
MCCOOK         MOCLDY    64  43  46 S13       29.91S
OGALLALA       CLEAR     64  46  50 CALM      29.88S
$$

NEZ005>010-023>029-035>040-094-200500-
NORTH CENTRAL NEBRASKA

CITY           SKY/WX    TMP DP  RH WIND       PRES   REMARKS
VALENTINE      CLEAR     70  46  42 S20G26    29.81S
AINSWORTH      PTCLDY    61  49  64 S15       29.85S
BROKEN BOW     MOCLDY    61  45  55 S7        29.90S
O`NEILL        CLEAR     62  51  66 S8        29.88S
ORD            PTCLDY    64  45  49 S13       29.89S
THEDFORD       MOCLDY    64  46  51 S10       29.87S
$$

NEZ041-046>049-061>064-073>077-083>087-200500-
SOUTH CENTRAL NEBRASKA

CITY           SKY/WX    TMP DP  RH WIND       PRES   REMARKS
GRAND ISLAND   FAIR      61  48  62 S14       29.94S
AURORA         FAIR      62  46  56 S12       29.95S
HASTINGS       FAIR      62  45  53 S10       29.96R
HEBRON         FAIR      65  47  52 S13       29.98S
HOLDREGE       FAIR      61  45  56 S13       29.93S
KEARNEY        FAIR      63  44  50 S16       29.93S
YORK           FAIR      64  48  55 S12       29.96S
$$

NEZ011>018-030>034-042>045-200500-
NORTHEAST NEBRASKA

CITY           SKY/WX    TMP DP  RH WIND       PRES   REMARKS
NORFOLK        FAIR      64  49  57 S12       29.91S
ALBION         FAIR      62  49  63 SE7       29.92S
BLAIR          FAIR      66  52  59 S14       29.96S
COLUMBUS       FAIR      66  48  52 S17G23    29.94R
FREMONT        FAIR      66  50  57 S12       29.96S
TEKAMAH        FAIR      50  48  93 S5        29.94S
WAYNE          FAIR      58  53  82 S6        29.92S
$$

NEZ050>053-065>068-078-088>093-200500-
SOUTHEAST NEBRASKA

CITY           SKY/WX    TMP DP  RH WIND       PRES   REMARKS
LINCOLN        FAIR      58  48  69 S9        29.98R
OMAHA EPPLEY   FAIR      65  51  60 S13       29.98R
BEATRICE       FAIR      64  49  57 S14       30.00R
FALLS CITY     FAIR      64  52  64 S9        30.02S
NEBRASKA CITY  FAIR      63  52  68 S9        30.01R
PLATTSMOUTH    FAIR      64  52  65 S10       30.00R
$$

NEZ044-045-051>053-067-200500-
OMAHA AREA

CITY           SKY/WX    TMP DP  RH WIND       PRES   REMARKS
OMAHA EPPLEY   FAIR      65  51  60 S13       29.98R
BLAIR          FAIR      66  52  59 S14       29.96S
FREMONT        FAIR      66  50  57 S12       29.96S
MILLARD        FAIR      66  53  61 SE7       29.98R
OFFUTT AFB     FAIR      64  51  63 S10       29.98R
PLATTSMOUTH    FAIR      64  52  65 S10       30.00R
WAHOO          FAIR      59  51  73 S9        29.96S
$$




USA.gov is the U.S. government's official web portal to all federal, state and local government web resources and services.